TimeAKST,TemperatureF,Dew PointF,Humidity,Sea Level PressureIn,VisibilityMPH,Wind Direction,Wind SpeedMPH,Gust SpeedMPH,PrecipitationIn,Events,Conditions,WindDirDegrees,DateUTC
12:53 AM,26.1,7.0,44,29.50,10.0,NNE,10.4,-,N/A,,Clear,30,2014-03-06 09:53:00
1:53 AM,25.0,8.1,49,29.50,10.0,NNE,10.4,-,N/A,,Clear,30,2014-03-06 10:53:00
3:53 AM,26.1,10.0,51,29.50,10.0,NE,6.9,-,N/A,,Clear,40,2014-03-06 12:53:00
4:53 AM,25.0,8.1,49,29.51,10.0,Variable,3.5,-,N/A,,Clear,0,2014-03-06 13:53:00
5:53 AM,25.0,8.1,49,29.51,10.0,Calm,Calm,-,N/A,,Clear,0,2014-03-06 14:53:00
6:53 AM,25.0,8.1,49,29.53,10.0,ENE,4.6,-,N/A,,Clear,60,2014-03-06 15:53:00
7:53 AM,26.1,9.0,49,29.54,10.0,Calm,Calm,-,N/A,,Clear,0,2014-03-06 16:53:00
8:53 AM,30.9,10.0,42,29.55,10.0,Calm,Calm,-,N/A,,Clear,0,2014-03-06 17:53:00
9:53 AM,34.0,8.1,34,29.56,10.0,NNE,10.4,-,N/A,,Clear,30,2014-03-06 18:53:00
10:53 AM,37.0,8.1,30,29.58,10.0,NNE,11.5,-,N/A,,Clear,20,2014-03-06 19:53:00
11:53 AM,39.0,8.1,28,29.59,10.0,North,8.1,-,N/A,,Clear,360,2014-03-06 20:53:00
12:53 PM,39.9,9.0,28,29.60,10.0,North,8.1,-,N/A,,Scattered Clouds,360,2014-03-06 21:53:00
1:53 PM,42.1,9.0,26,29.61,10.0,North,6.9,-,N/A,,Partly Cloudy,360,2014-03-06 22:53:00
2:53 PM,41.0,12.0,31,29.63,10.0,North,6.9,-,N/A,,Overcast,10,2014-03-06 23:53:00
3:53 PM,39.0,10.0,30,29.64,10.0,Calm,Calm,-,N/A,,Scattered Clouds,0,2014-03-07 00:53:00
4:53 PM,36.0,12.9,39,29.65,10.0,North,4.6,-,N/A,,Scattered Clouds,350,2014-03-07 01:53:00
5:53 PM,32.0,15.1,50,29.66,10.0,Calm,Calm,-,N/A,,Partly Cloudy,0,2014-03-07 02:53:00
6:53 PM,30.0,15.1,54,29.68,10.0,Calm,Calm,-,N/A,,Clear,0,2014-03-07 03:53:00
7:53 PM,30.0,18.0,61,29.70,10.0,NNE,3.5,-,N/A,,Mostly Cloudy,30,2014-03-07 04:53:00
8:53 PM,34.0,23.0,64,29.71,10.0,NE,5.8,-,N/A,,Overcast,40,2014-03-07 05:53:00
9:12 PM,34.0,21.9,61,29.71,10.0,North,-9999.0,-,N/A,,Overcast,0,2014-03-07 06:12:00
9:36 PM,35.1,24.1,64,29.72,10.0,Variable,3.5,-,N/A,,Overcast,0,2014-03-07 06:36:00
9:53 PM,36.0,25.0,64,29.72,10.0,Calm,Calm,-,N/A,,Overcast,0,2014-03-07 06:53:00
10:39 PM,35.1,27.0,72,29.72,6.0,Variable,3.5,-,0.00,Snow,Light Snow,0,2014-03-07 07:39:00
10:53 PM,35.1,28.9,78,29.72,9.0,NE,4.6,-,0.00,Snow,Light Snow,40,2014-03-07 07:53:00
11:53 PM,34.0,30.0,85,29.71,6.0,NE,8.1,-,0.00,Snow,Light Snow,50,2014-03-07 08:53:00